Hourly Weather Smolyazh

Today, 9 May, Sunday

Time Temperature Precipitation Wind Pressure Humidity
00:00 +1°C° 0 mm 5 mps 750 mmHg 86%
01:00 +1°C° 0 mm 5 mps 750 mmHg 87%
02:00 0°C° 0 mm 5 mps 750 mmHg 88%
03:00 0°C° 0 mm 5 mps 751 mmHg 88%
04:00 0°C° 0 mm 4 mps 752 mmHg 89%
05:00 0°C° 0 mm 4 mps 752 mmHg 89%
06:00 +1°C° 0 mm 5 mps 753 mmHg 82%
07:00 +3°C° 0 mm 5 mps 753 mmHg 76%
08:00 +5°C° 0 mm 6 mps 754 mmHg 69%
09:00 +7°C° 0 mm 6 mps 754 mmHg 62%
10:00 +8°C° 0 mm 6 mps 754 mmHg 55%
11:00 +9°C° 0 mm 7 mps 754 mmHg 48%
12:00 +10°C° 0 mm 7 mps 755 mmHg 47%
13:00 +10°C° 0 mm 6 mps 755 mmHg 45%
14:00 +11°C° 0 mm 6 mps 755 mmHg 43%
15:00 +10°C° 0 mm 5 mps 755 mmHg 47%
16:00 +10°C° 0 mm 5 mps 756 mmHg 50%
17:00 +11°C° 0 mm 4 mps 756 mmHg 54%
18:00 +10°C° 0 mm 3 mps 756 mmHg 57%
19:00 +8°C° 0 mm 3 mps 757 mmHg 61%
20:00 +6°C° 0 mm 2 mps 757 mmHg 65%
21:00 +6°C° 0 mm 2 mps 757 mmHg 65%
22:00 +6°C° 0 mm 1 mps 758 mmHg 65%
23:00 +6°C° 0 mm 1 mps 758 mmHg 64%

Tomorrow, 10 May, Monday

Time Temperature Precipitation Wind Pressure Humidity
00:00 +5°C° 0 mm 1 mps 758 mmHg 64%
01:00 +5°C° 0 mm 1 mps 758 mmHg 65%
02:00 +5°C° 0 mm 1 mps 759 mmHg 65%
03:00 +5°C° 0 mm 1 mps 759 mmHg 66%
04:00 +5°C° 0 mm 1 mps 759 mmHg 67%
05:00 +5°C° 0 mm 1 mps 759 mmHg 68%
06:00 +7°C° 0 mm 1 mps 760 mmHg 64%
07:00 +9°C° 0 mm 1 mps 760 mmHg 60%
08:00 +11°C° 0 mm 1 mps 760 mmHg 56%
09:00 +12°C° 0 mm 1 mps 760 mmHg 52%
10:00 +13°C° 0 mm 2 mps 760 mmHg 48%
11:00 +14°C° 0 mm 2 mps 759 mmHg 44%
12:00 +15°C° 0 mm 2 mps 759 mmHg 44%
13:00 +15°C° 0 mm 2 mps 759 mmHg 44%
14:00 +16°C° 0 mm 3 mps 759 mmHg 43%
15:00 +16°C° 0 mm 3 mps 758 mmHg 47%
16:00 +14°C° 0 mm 3 mps 758 mmHg 51%
17:00 +14°C° 0 mm 3 mps 758 mmHg 55%
18:00 +12°C° 0 mm 3 mps 758 mmHg 60%
19:00 +11°C° 0 mm 3 mps 758 mmHg 66%
20:00 +9°C° 0 mm 3 mps 758 mmHg 71%
21:00 +8°C° 0 mm 3 mps 758 mmHg 72%
22:00 +7°C° 0 mm 3 mps 758 mmHg 72%
23:00 +7°C° 0 mm 3 mps 758 mmHg 73%

Day after tomorrow, 11 May, Tuesday

Time Temperature Precipitation Wind Pressure Humidity
00:00 +5°C° 0 mm 3 mps 757 mmHg 75%
01:00 +5°C° 0 mm 3 mps 757 mmHg 77%
02:00 +4°C° 0 mm 3 mps 757 mmHg 79%
03:00 +4°C° 0 mm 3 mps 757 mmHg 78%
04:00 +4°C° 0 mm 4 mps 757 mmHg 77%
05:00 +4°C° 0 mm 4 mps 756 mmHg 76%
06:00 +5°C° 0 mm 4 mps 756 mmHg 74%
07:00 +6°C° 0 mm 5 mps 756 mmHg 72%
08:00 +8°C° 0 mm 5 mps 756 mmHg 70%
09:00 +9°C° 0 mm 5 mps 755 mmHg 69%
10:00 +12°C° 0 mm 5 mps 755 mmHg 69%
11:00 +14°C° 0 mm 5 mps 755 mmHg 68%
12:00 +15°C° 0 mm 5 mps 755 mmHg 67%
13:00 +16°C° 0 mm 6 mps 754 mmHg 66%
14:00 +19°C° 0 mm 6 mps 754 mmHg 65%
15:00 +17°C° 0.1 mm 6 mps 754 mmHg 71%
16:00 +16°C° 0.1 mm 6 mps 754 mmHg 77%
17:00 +15°C° 0.1 mm 5 mps 754 mmHg 82%
18:00 +13°C° 0 mm 5 mps 754 mmHg 85%
19:00 +12°C° 0 mm 4 mps 754 mmHg 88%
20:00 +10°C° 0 mm 3 mps 754 mmHg 92%
21:00 +10°C° 0 mm 3 mps 754 mmHg 92%
22:00 +9°C° 0 mm 3 mps 754 mmHg 92%
23:00 +8°C° 0 mm 3 mps 754 mmHg 92%

12 May, Wednesday

Time Temperature Precipitation Wind Pressure Humidity
00:00 +7°C° 0 mm 3 mps 753 mmHg 92%
01:00 +7°C° 0 mm 3 mps 753 mmHg 92%
02:00 +5°C° 0 mm 3 mps 753 mmHg 92%
03:00 +5°C° 0 mm 3 mps 752 mmHg 91%
04:00 +5°C° 0 mm 3 mps 752 mmHg 91%
05:00 +5°C° 0 mm 3 mps 752 mmHg 90%
06:00 +7°C° 0 mm 4 mps 752 mmHg 86%
07:00 +8°C° 0 mm 5 mps 752 mmHg 81%
08:00 +9°C° 0 mm 6 mps 751 mmHg 77%
09:00 +9°C° 0.1 mm 6 mps 751 mmHg 78%
10:00 +9°C° 0.1 mm 6 mps 751 mmHg 78%
11:00 +9°C° 0.1 mm 6 mps 751 mmHg 79%
12:00 +9°C° 0.2 mm 6 mps 750 mmHg 81%
13:00 +9°C° 0.2 mm 6 mps 750 mmHg 83%
14:00 +8°C° 0.2 mm 6 mps 750 mmHg 84%
15:00 +8°C° 0.2 mm 6 mps 750 mmHg 86%
16:00 +8°C° 0.2 mm 6 mps 750 mmHg 87%
17:00 +8°C° 0.2 mm 5 mps 749 mmHg 89%
18:00 +7°C° 0.1 mm 5 mps 749 mmHg 90%
19:00 +7°C° 0.1 mm 4 mps 749 mmHg 92%
20:00 +7°C° 0.1 mm 4 mps 749 mmHg 93%
21:00 +7°C° 0 mm 4 mps 748 mmHg 94%
22:00 +6°C° 0 mm 4 mps 748 mmHg 95%
23:00 +6°C° 0 mm 4 mps 748 mmHg 96%

13 May, Thursday

Time Temperature Precipitation Wind Pressure Humidity
00:00 +6°C° 0 mm 4 mps 748 mmHg 96%
01:00 +5°C° 0 mm 3 mps 748 mmHg 96%
02:00 +5°C° 0 mm 3 mps 748 mmHg 96%
03:00 +5°C° 0 mm 3 mps 748 mmHg 96%
04:00 +5°C° 0 mm 3 mps 748 mmHg 95%
05:00 +5°C° 0 mm 3 mps 748 mmHg 95%
06:00 +7°C° 0 mm 3 mps 748 mmHg 90%
07:00 +8°C° 0 mm 4 mps 748 mmHg 84%
08:00 +10°C° 0 mm 5 mps 748 mmHg 79%
09:00 +13°C° 0 mm 5 mps 748 mmHg 76%
10:00 +14°C° 0 mm 6 mps 748 mmHg 72%
11:00 +15°C° 0 mm 6 mps 748 mmHg 68%
12:00 +16°C° 0 mm 6 mps 748 mmHg 67%
13:00 +17°C° 0 mm 5 mps 747 mmHg 65%
14:00 +17°C° 0 mm 5 mps 747 mmHg 64%
15:00 +17°C° 0.1 mm 5 mps 747 mmHg 67%
16:00 +17°C° 0.1 mm 5 mps 747 mmHg 70%
17:00 +17°C° 0.1 mm 5 mps 746 mmHg 73%
18:00 +17°C° 0.4 mm 4 mps 746 mmHg 79%
19:00 +15°C° 0.4 mm 4 mps 746 mmHg 86%
20:00 +13°C° 0.4 mm 4 mps 746 mmHg 92%
21:00 +13°C° 0.7 mm 4 mps 745 mmHg 93%
22:00 +13°C° 0.7 mm 4 mps 745 mmHg 94%
23:00 +13°C° 0.7 mm 5 mps 745 mmHg 94%

14 May, Friday

Time Temperature Precipitation Wind Pressure Humidity
00:00 +13°C° 0.5 mm 4 mps 745 mmHg 95%
01:00 +12°C° 0.5 mm 4 mps 745 mmHg 95%
02:00 +12°C° 0.5 mm 4 mps 745 mmHg 96%
03:00 +11°C° 0 mm 3 mps 745 mmHg 95%
04:00 +11°C° 0 mm 3 mps 745 mmHg 94%
05:00 +10°C° 0 mm 3 mps 745 mmHg 94%
06:00 +12°C° 0 mm 3 mps 746 mmHg 89%
07:00 +13°C° 0 mm 3 mps 746 mmHg 85%
08:00 +16°C° 0 mm 3 mps 746 mmHg 80%
09:00 +17°C° 0 mm 3 mps 746 mmHg 74%
10:00 +19°C° 0 mm 2 mps 746 mmHg 68%
11:00 +20°C° 0 mm 2 mps 747 mmHg 62%
12:00 +21°C° 0 mm 2 mps 746 mmHg 61%
13:00 +21°C° 0 mm 3 mps 746 mmHg 60%
14:00 +22°C° 0 mm 3 mps 746 mmHg 58%
15:00 +21°C° 0.3 mm 3 mps 746 mmHg 64%
16:00 +20°C° 0.3 mm 2 mps 746 mmHg 69%
17:00 +20°C° 0.3 mm 2 mps 746 mmHg 75%
18:00 +18°C° 0.2 mm 2 mps 745 mmHg 78%
19:00 +18°C° 0.2 mm 1 mps 745 mmHg 81%
20:00 +16°C° 0.2 mm 1 mps 745 mmHg 85%
21:00 +15°C° 0.3 mm 1 mps 745 mmHg 88%
22:00 +15°C° 0.3 mm 2 mps 745 mmHg 91%
23:00 +14°C° 0.3 mm 2 mps 745 mmHg 94%
Show more

We Need Your Consent

Meteoprog and our Service Providers may store and access personal data such as cookies, device identifiers or other similar technologies on your device and process such data to personalise content and ads, as well as provide social media features and to analyse the traffic.

  • Store and/or access information on your device

    Cookies, device identifiers or other information can be stored or accessed on your device for the purposes indicated above.

  • Personalised ads and content, ad and content measurement, audience insights, and products development

    Ads and content can be personalised based on a profile. More data can be added to better personalise ads and content. Ad and content performance can be measured. Insights about the audience who saw the ads and content can be derived. Such data can be used to develop or improve user’s experience, systems and software.

By clicking ‘I Agree’ you will allow the use of indicated cookies, device identifiers, web beacons or other similar technologies. Your settings can be changed in the browser on your device.

For certain purposes, legitimate interests may be relied on, rather than consent. You can read more about this in our Privacy and Cookie Policy.